Regional Weather Roundup
Issued by NWS

Home | Current Version | Previous Version | Text Only | Print | Product List | Glossary On
Versions: 1 2 3 4 5 6 7 8 9 10 11 12 13 14 15 16 17 18 19 20 21 22 23 24 25 26 27 28 29 30 31 32 33 34 35 36 37 38 39 40 41 42 43 44 45 46 47 48 49 50
000
ASUS43 KMKX 012300
RWRWI

WISCONSIN REGIONAL WEATHER ROUNDUP
NATIONAL WEATHER SERVICE MILWAUKEE/SULLIVAN WI
600 PM CDT WED OCT 01 2014

NOTE: "FAIR" INDICATES FEW OR NO CLOUDS BELOW 12,000 FEET WITH NO
SIGNIFICANT WEATHER AND/OR OBSTRUCTIONS TO VISIBILITY.

WIZ001-002-006>008-014>016-023>028-020000-
NORTHWEST WISCONSIN

CITY           SKY/WX    TMP DP  RH WIND       PRES   REMARKS
SUPERIOR ARPT  CLOUDY    52  51  97 CALM      29.79R
ASHLAND        CLOUDY    52  51  97 E3        29.81F
HAYWARD        CLOUDY    53  52  96 S6        29.82R
SIREN          CLOUDY    53  51  94 S6        29.80R
CUMBERLAND     CLOUDY    52  50  93 S6        29.81S FOG
RICE LAKE      CLOUDY    53  52  95 SE7       29.83S FOG
CHETEK         CLOUDY    53  53  97 SE6       29.82S
LADYSMITH      CLOUDY    55  53  95 S5        29.85R FOG
EAU CLAIRE     NOT AVBL
MENOMONIE      CLOUDY    55  54  96 SE5       29.81S FOG
NEW RICHMOND   CLOUDY    55  54  97 S6        29.80R FOG
OSCEOLA        CLOUDY    55  55 100 S3        29.83R
$$

WIZ003>005-009-010-017-018-020000-
NORTH CENTRAL WISCONSIN

CITY           SKY/WX    TMP DP  RH WIND       PRES   REMARKS
MANITOWISH WTR LGT RAIN  53  53 100 S8        29.84R
ARBOR VITAE    DRIZZLE   55  52  92 SE8       29.84S
WOODRUFF       DRIZZLE   55  52  92 SE8       29.84S
RHINELANDER    CLOUDY    55  51  86 SE8       29.87R
EAGLE RIVER    LGT RAIN  54  49  83 SE8       29.85F
LAND O LAKES   CLOUDY    54  50  86 SE9G16    29.86S
PHILLIPS       DRIZZLE   53  52  96 S6        29.83S
TOMAHAWK       DRIZZLE   55  53  92 CALM      29.85S
MEDFORD        DRIZZLE   55  53  93 SE5       29.84S
MERRILL        CLOUDY    59  53  80 S10       29.86R
$$

WIZ029-030-035-036-043>047-020000-
CENTRAL WISCONSIN

CITY           SKY/WX    TMP DP  RH WIND       PRES   REMARKS
WAUSAU         CLOUDY    60  51  72 SE12      29.85R
MOSINEE        CLOUDY    59  54  82 SE7       29.87S
MARSHFIELD     LGT RAIN  60  52  74 SE10      29.84F
STEVENS POINT  CLOUDY    60  51  73 E7        29.87R
WAUPACA        CLOUDY    64  53  66 E9G16     29.88R
WAUTOMA        NOT AVBL
WISC RAPIDS    LGT RAIN  61  53  75 SE6       29.86F
CAMP DOUGLAS   NOT AVBL
$$

WIZ011>013-019>022-031-037>040-048>050-020000-
NORTHEAST WISCONSIN

CITY           SKY/WX    TMP DP  RH WIND       PRES   REMARKS
ANTIGO         CLOUDY    56  52  85 SE10      29.88S
SHAWANO        CLOUDY    59  52  78 SE12      29.90S
OCONTO         CLOUDY    56  53  88 SE9       29.92S
STURGEON BAY   NOT AVBL
GREEN BAY      CLOUDY    57  52  83 SE12      29.92S
MANITOWOC      NOT AVBL
APPLETON       MOCLDY    59  50  72 SE13      29.89F
CLINTONVILLE   CLOUDY    59  52  77 SE7       29.90R
OSHKOSH        CLOUDY    59  51  75 SE12      29.89S
$$

WIZ032>034-041-042-053>061-020000-
SOUTHWEST WISCONSIN

CITY           SKY/WX    TMP DP  RH WIND       PRES   REMARKS
LA CROSSE      CLOUDY    65  56  72 E6        29.81S
SPARTA         CLOUDY    63  55  76 CALM      29.83S
VIROQUA        CLOUDY    65  55  70 SE3       29.83S
BOSCOBEL       CLOUDY    72  56  57 S5        29.82S
PRAIRIE DU CHI CLOUDY    69  55  60 E5        29.81R
PLATTEVILLE    PTCLDY    71  57  62 SE13      29.84S
$$

WIZ056-057-062-063-064-067-068-020000-
SOUTH CENTRAL WISCONSIN

CITY           SKY/WX    TMP DP  RH WIND       PRES   REMARKS
REEDSBURG      CLOUDY    67  55  66 SE5       29.84S
BARABOO/DELLS  CLOUDY    67  52  58 SE8       29.85S
LONE ROCK      NOT AVBL
MINERAL POINT  CLOUDY    70  55  60 SE6       29.84S
MADISON        CLOUDY    68  54  60 SE10      29.86R
MIDDLETON      CLOUDY    70  52  52 SE9       29.86R
WATERTOWN      CLOUDY    62  53  71 SE13      29.88S
MONROE         CLOUDY    68  55  64 E5        29.85R
JANESVILLE     CLEAR     70  54  56 SE12      29.86S
$$

WIZ051-052-058>065-066-070>072-020000-
SOUTHEAST WISCONSIN

CITY           SKY/WX    TMP DP  RH WIND       PRES   REMARKS
MILWAUKEE      MOCLDY    60  53  77 SE12      29.92F
WAUKESHA       CLEAR     57  50  77 SE12      29.92S
MILWAUKEE/TIMM PTCLDY    59  50  72 SE8       29.92F
RACINE         PTCLDY    61  53  75 SE12      29.93F
BURLINGTON     MOCLDY    60  51  73 SE7       29.91R
KENOSHA        PTCLDY    61  53  75 SE8       29.92S
FOND DU LAC    CLOUDY    59  50  72 SE15G23   29.90R
SHEBOYGAN      CLOUDY    56  50  80 SE9       29.93F
WEST BEND      MOCLDY    55  50  82 SE7       29.92R
JUNEAU         CLOUDY    62  52  70 SE12      29.90S
$$

LSZ147-162-020000-
LAKE SUPERIOR

STATION/POSITION TIME  TEMP    WIND        PRES    WAVE
                       AIR SEA DIR/SP/G            HT/PER
                 (UTC) (F)     (DEG/KT/KT) (MB)    (FT/S)
W MID LAKE BUOY  2150   49 50   60/  8/ 10 1009.7F   1
DEVILS ISLAND    2200   50     100/  5/  6 1010.5F
SAXON HARBOR     2200   53        CALM     1010.2R
$$

LMZ867-665-643>646-020000-
LAKE MICHIGAN

STATION/POSITION TIME  TEMP    WIND        PRES    WAVE
                       AIR SEA DIR/SP/G            HT/PER
                 (UTC) (F)     (DEG/KT/KT) (MB)    (FT/S)
CHAMBERS ISLAND  2200   57     140/  6/ 15 1013.9F
S GREEN BAY BUOY 2030   57                 1014.6
N MID LAKE BUOY  2150   56 58  160/  4/  6 1014.5F   1/ 3
NORTHPORT PIER   2200   56     160/  6/ 11 1014.2F
KEWAUNEE LAKESHO 2200   55     150/ 14/ 18 1013.2F
SHEBOYGAN LAKESH 2200   56 58  140/ 16/ 18 1014.2R
PORT WASHINGTON  2200   59     150/ 11/ 14 1014.2S
MILWAUKEE LAKESH 2200   59     140/ 12/ 14   N/A
S MID LAKE BUOY  2150   60 61  110/ 12/ 14 1013.9S   2/ 3
KENOSHA   LAKESH 2200   61     130/ 14/ 16 1012.9F
$$

TC  - TEMPERATURE IN CELSIUS
VSB - VISIBILITY IN STATUTE MILES
WCI - WIND CHILL INDEX
HX  - HEAT INDEX




USA.gov is the U.S. government's official web portal to all federal, state and local government web resources and services.